SCP
0 0 0 0 0 0 0 0 0 0 1 1 1 1 1 2 2 2 2 2 2 2 2 2 2 2 2 2 3 3 3 3 3 2 2 1 0 0 0 0 0 0 0 0
0 0 0 0 0 0 0 0 0 0 1 1 1 1 1 1 2 2 2 2 2 2 2 2 2 2 2 2 2 3 3 3 2 2 1 1 0 0 0 0 0 0 0 0
0 0 0 0 0 0 0 0 0 1 1 1 1 1 1 1 1 2 2 2 2 2 2 3 3 2 2 2 2 2 2 2 1 1 1 0 0 0 0 0 0 0 0 0
0 0 0 0 0 0 0 0 1 1 1 1 1 1 1 1 1 2 2 2 2 2 2 2 3 2 2 1 1 1 1 1 1 0 0 0 0 0 0 0 0 0 0 0
0 0 0 0 0 0 0 0 1 1 1 1 1 1 1 1 1 1 1 2 2 2 2 2 2 2 2 1 1 1 1 1 0 0 0 0 0 0 0 0 0 0 0 0
0 0 0 0 0 0 0 0 1 1 1 1 1 1 1 1 1 1 1 1 2 2 2 1 1 1 1 1 0 0 0 0 0 0 0 0 0 0 0 0 0 0 0 0
1 0 0 0 0 0 0 0 1 1 0 1 1 1 1 2 2 1 1 1 2 2 1 1 1 1 1 0 0 0 0 0 0 0 0 0 0 0 0 0 0 0 0 0
1 0 0 1 1 0 0 0 1 1 0 1 1 1 2 2 2 1 1 1 2 2 1 0 0 1 1 0 0 0 0 0 0 0 0 0 0 0 0 0 0 0 0 0
1 1 1 1 1 1 0 0 0 1 1 1 1 1 2 2 2 2 1 1 2 1 1 0 0 0 1 0 0 0 0 0 0 0 0 0 0 0 0 0 0 0 0 0
1 1 1 1 1 1 1 0 1 1 1 1 1 1 1 2 2 1 1 1 1 1 1 0 0 0 1 0 0 0 0 0 0 0 0 0 0 0 0 0 0 0 0 0
1 1 1 1 1 1 1 0 1 1 1 1 1 1 1 1 1 1 1 1 1 1 0 0 0 0 1 0 0 0 0 0 0 0 0 0 0 0 0 0 0 0 0 0
1 1 1 1 1 1 1 1 1 1 1 1 1 1 1 1 1 1 1 1 1 1 0 0 0 1 1 0 0 0 0 0 0 0 0 0 0 0 0 0 0 0 0 0
0 0 0 0 1 1 1 1 1 1 1 1 1 1 1 1 1 1 1 1 1 1 0 0 0 1 1 0 0 0 0 0 0 0 0 0 0 0 0 0 0 0 0 0
0 0 0 0 0 1 1 1 0 0 0 0 1 1 1 1 1 1 1 2 1 1 1 0 0 1 1 0 0 0 0 0 0 0 0 0 0 0 0 0 0 0 0 0
0 0 0 0 0 1 1 1 0 0 0 0 0 0 1 1 1 1 1 1 1 1 1 0 0 0 0 0 0 0 0 0 0 0 0 0 0 0 0 0 0 0 0 0
0 0 0 0 0 1 1 0 0 0 0 0 0 0 1 1 1 1 1 1 1 1 0 0 0 0 0 0 0 0 0 0 0 0 0 0 0 0 0 0 0 0 0 0
0 0 0 0 0 1 0 0 0 0 0 0 0 0 0 1 1 1 1 1 1 0 0 0 0 0 0 0 0 0 0 0 0 0 0 0 0 0 0 0 0 0 0 0
0 0 0 0 0 1 0 0 0 0 0 0 0 0 0 0 0 0 0 0 0 0 0 0 0 0 0 0 0 0 0 0 0 0 0 0 0 0 0 0 0 0 0 0
0 0 0 0 0 1 0 0 0 0 1 1 0 0 0 0 0 0 0 0 0 0 0 0 0 0 0 0 0 0 0 0 0 0 0 0 0 0 0 0 0 0 0 0
0 0 0 0 0 0 0 0 0 1 1 1 0 0 0 0 0 0 0 0 0 0 0 0 0 0 0 0 0 0 0 0 0 0 0 0 0 0 0 0 0 0 0 0
1 1 0 0 0 0 0 0 1 1 1 1 0 0 0 0 0 0 0 1 1 0 0 0 0 0 0 0 0 0 0 0 0 0 0 0 0 0 0 0 0 0 0 0
1 1 1 0 0 0 0 1 1 1 1 0 0 0 0 0 0 0 0 1 0 0 0 0 0 0 0 0 0 0 0 0 0 0 0 0 0 0 0 0 0 0 0 0
1 1 0 0 0 0 0 0 0 0 0 0 0 0 0 0 0 0 0 0 0 0 0 0 0 0 0 0 0 0 0 0 0 0 0 0 0 0 0 0 0 0 0 0
1 0 0 1 0 0 0 0 0 0 0 0 0 0 0 0 0 0 0 0 0 0 0 0 0 0 0 0 0 0 0 0 0 0 0 0 0 0 0 0 0 0 0 0
0 0 1 1 0 0 0 0 0 0 0 0 0 0 0 0 0 0 0 0 0 0 0 0 0 0 0 0 0 0 0 0 0 0 0 0 0 0 0 0 0 0 0 0
0 0 1 1 0 0 0 0 0 0 0 0 0 0 0 0 0 0 0 0 0 0 0 0 0 0 0 0 0 0 0 0 0 0 0 0 0 0 0 0 0 0 0 0
0 0 1 0 0 0 0 0 0 0 0 0 0 0 0 0 0 0 0 0 0 0 0 0 0 0 0 0 0 0 0 0 0 0 0 0 0 0 0 0 0 0 0 0
Wind_Speed
5 5 6 7 7 8 9 10 10 8 6 3 5 5 5 6 6 7 7 7 7 6 6 5 4 4 4 4 3 3 3 3 3 2 2 2 1 1 1 2 2 2 2 2
6 6 7 8 8 8 9 9 9 8 5 1 5 6 6 6 7 7 7 7 6 6 6 6 5 4 4 4 4 3 3 3 3 2 2 1 1 1 1 1 2 2 2 2
7 6 9 8 5 7 7 7 8 8 2 5 6 6 7 7 7 7 7 7 7 6 6 6 5 4 4 4 4 3 3 3 3 2 2 1 1 1 2 2 2 2 2 2
6 7 9 1 1 4 6 5 5 3 2 5 5 5 6 7 7 7 7 7 6 6 6 5 5 5 4 4 4 3 3 3 3 2 2 1 1 2 2 2 2 2 2 2
6 8 8 4 4 4 6 6 4 3 4 5 6 6 6 6 6 7 7 6 6 6 6 6 5 5 5 4 4 3 3 3 3 2 2 1 2 2 2 1 2 2 2 2
8 9 8 1 3 2 6 6 4 5 7 7 7 6 6 8 7 7 7 6 6 6 6 6 5 5 5 5 4 3 3 3 3 2 2 1 2 1 1 1 1 1 2 2
10 9 5 1 3 5 7 1 5 5 7 8 6 1 7 10 8 8 8 7 7 7 6 6 6 5 5 5 4 3 3 4 3 2 2 2 1 1 1 1 1 1 1 1
7 9 3 5 5 4 3 3 4 5 7 6 4 6 9 10 9 9 8 8 8 7 6 6 6 6 5 5 4 3 3 4 3 2 1 2 1 1 1 1 1 1 0 1
4 3 2 2 1 1 0 2 4 5 6 7 7 8 9 10 10 9 9 9 8 7 7 6 6 5 5 5 4 4 4 3 3 2 1 1 0 0 0 1 1 1 0 1
6 5 4 4 3 2 2 3 5 6 8 9 9 9 10 9 9 9 9 8 8 8 7 6 6 6 5 5 4 4 3 3 2 2 2 1 1 1 1 1 1 2 1 2
8 5 4 5 4 3 3 5 7 8 8 9 10 10 9 9 9 8 8 8 8 7 7 7 7 6 6 5 5 4 3 3 3 2 2 1 1 1 2 2 3 4 4 4
6 5 5 5 5 5 6 7 8 9 9 9 9 10 9 8 8 8 8 8 8 7 7 7 7 6 6 5 5 4 4 3 2 2 1 1 1 1 1 2 2 5 6 7
5 4 3 4 6 7 7 8 8 9 9 10 9 9 9 8 8 8 9 9 8 8 7 7 7 7 6 6 5 4 3 2 2 1 1 1 1 1 1 3 6 8 8 8
4 4 5 6 7 7 8 9 9 9 9 9 9 9 8 8 9 9 9 8 8 8 7 7 7 6 6 6 5 5 4 3 3 2 2 2 2 2 2 3 2 2 6 9
8 7 7 7 8 9 9 10 10 10 10 10 9 9 9 8 9 8 8 8 8 8 7 7 7 6 6 6 6 5 4 2 2 2 2 2 2 3 3 3 3 3 3 4
8 7 9 10 11 11 11 11 11 11 11 10 10 9 9 8 8 8 8 8 8 8 7 7 6 6 6 6 5 5 4 3 4 4 3 3 3 3 3 4 4 4 4 4
10 11 12 12 12 12 11 11 10 10 10 10 10 10 9 9 8 8 8 8 7 6 6 6 6 6 6 6 6 5 4 4 6 6 4 3 3 4 4 4 5 5 5 3
10 10 11 12 11 12 11 11 11 11 10 10 11 11 10 10 9 8 8 7 7 7 7 7 6 6 6 6 6 5 4 4 4 4 4 4 4 5 5 5 5 7 6 3
10 10 10 11 11 11 11 11 11 11 11 11 11 10 9 9 8 8 8 8 7 7 6 6 6 7 6 6 6 6 5 5 5 5 5 4 6 6 5 6 6 6 6 6
11 11 11 12 12 12 11 11 11 11 10 11 10 10 9 8 8 8 7 7 5 4 5 6 7 7 6 6 7 6 5 5 6 5 5 5 6 6 6 6 6 6 6 6
12 12 12 12 12 12 12 12 11 11 11 11 10 10 9 8 8 7 7 6 5 5 6 6 6 6 6 5 7 6 5 5 5 5 5 5 6 6 6 6 6 6 6 6
12 12 12 12 12 11 11 11 11 11 11 10 10 9 9 8 8 7 7 4 5 5 5 6 6 5 4 5 6 6 5 5 5 5 5 5 6 6 6 6 6 6 6 6
12 12 12 12 12 11 11 11 11 11 11 10 10 9 8 7 6 6 6 5 5 6 6 5 4 6 5 7 6 6 5 5 5 5 5 5 6 5 5 6 6 6 6 6
12 12 12 11 12 12 12 11 10 9 9 9 8 8 8 7 6 5 4 6 5 6 5 4 6 6 7 7 6 5 5 5 5 5 5 5 5 5 5 5 6 6 6 7
12 12 12 12 12 10 11 11 10 10 10 8 9 9 7 6 5 5 5 6 7 7 5 6 8 8 8 6 5 5 4 3 4 4 4 5 5 5 5 5 5 5 5 6
11 10 9 9 8 8 9 9 8 8 8 8 7 7 6 6 6 6 5 6 8 6 5 5 6 8 7 5 5 4 3 3 3 4 4 5 5 5 5 5 6 5 5 5
11 9 8 9 9 8 8 8 8 8 8 7 7 7 7 7 6 6 6 5 6 5 5 4 4 5 5 4 4 3 3 3 3 3 3 3 3 4 4 5 5 5 5 5
Wind_Direction
274 279 272 272 273 266 258 269 277 283 280 236 177 172 154 149 151 151 153 154 156 156 152 147 144 143 140 137 137 142 140 127 116 109 106 93 73 49 31 16 9 9 357 357
257 258 262 266 266 265 266 267 266 269 272 111 148 157 153 153 159 163 162 160 160 159 156 153 153 150 144 143 139 143 140 131 120 120 109 101 93 76 50 34 10 353 355 6
258 265 265 255 256 258 259 261 266 271 268 158 172 171 166 164 168 166 164 164 162 161 159 156 156 155 151 145 144 145 137 129 121 119 108 103 107 89 63 43 22 11 11 19
261 258 258 315 307 269 265 265 264 261 184 185 172 161 164 167 167 163 163 163 162 160 157 157 156 154 151 148 147 143 135 125 121 117 107 104 90 68 46 30 18 1 11 17
256 258 263 235 212 234 259 260 232 209 164 150 140 153 162 161 163 160 158 156 158 160 157 155 155 155 155 154 153 148 141 135 124 115 102 101 73 54 34 17 358 340 18 10
251 265 268 281 130 214 259 243 162 171 167 163 176 203 164 153 157 147 144 147 152 156 154 150 150 157 159 156 153 143 135 125 119 114 100 80 68 49 33 6 348 337 16 6
250 257 261 94 146 206 249 36 141 177 175 181 202 12 125 148 154 147 145 145 150 152 150 147 152 156 156 148 139 130 127 127 119 112 102 74 60 42 356 337 3 343 7 1
245 252 247 133 180 235 1 78 151 170 178 179 141 125 140 148 149 149 149 149 152 150 147 147 154 154 148 140 135 132 129 130 127 123 110 89 57 25 358 322 223 221 179 266
263 289 51 163 215 45 101 169 171 171 168 158 151 148 148 148 149 153 153 150 153 151 148 149 156 157 147 139 140 140 134 132 134 133 135 129 202 283 259 253 278 291 285 286
246 230 222 220 221 199 192 182 165 158 159 160 156 152 148 147 151 153 153 153 155 156 152 150 155 155 149 146 150 146 141 145 155 160 164 145 253 274 314 323 325 324 319 322
243 237 221 211 208 185 161 157 154 154 156 156 155 155 151 151 154 155 153 155 159 160 157 153 154 155 156 153 155 154 154 165 178 174 152 193 236 330 315 352 346 311 325 323
253 221 225 199 184 176 167 165 163 159 154 155 156 154 155 155 155 156 156 158 160 162 161 158 159 160 161 165 168 172 170 176 185 173 163 214 223 188 187 258 239 246 261 283
256 228 206 164 169 172 169 165 163 164 162 156 153 154 155 155 156 157 159 162 163 164 163 163 165 165 166 171 174 182 186 192 216 203 199 225 246 261 247 224 225 235 242 246
193 176 176 179 171 165 160 158 159 158 155 151 150 153 154 156 157 160 162 163 163 165 165 165 169 169 170 172 180 190 201 193 227 229 242 254 264 267 271 283 277 257 226 226
206 209 191 171 162 158 157 155 154 153 152 150 151 154 157 160 161 162 162 163 165 171 171 171 173 172 177 181 188 199 212 216 240 257 255 259 268 272 275 280 285 288 282 225
196 186 173 168 166 165 165 164 162 158 157 155 157 159 161 162 161 161 165 170 174 177 176 178 180 179 182 185 191 204 213 215 246 257 254 255 261 275 285 288 288 292 291 294
183 181 177 174 173 173 172 169 164 159 158 159 161 159 159 161 163 166 169 173 178 180 182 186 188 188 189 192 207 219 221 200 212 242 251 263 272 278 284 288 292 291 291 309
189 184 181 176 174 172 172 167 163 161 160 161 158 160 164 168 170 168 169 170 177 183 189 194 194 197 200 204 218 234 232 233 237 252 261 265 280 282 281 280 282 285 286 264
184 179 178 175 173 171 169 166 165 164 163 162 161 163 167 170 171 170 172 177 185 190 189 187 178 201 203 209 227 228 233 237 244 251 259 255 258 265 272 277 281 285 290 295
175 172 170 169 169 168 165 163 162 161 164 165 164 166 171 173 172 174 179 190 197 190 176 173 184 202 208 207 229 235 234 242 249 255 259 261 264 269 273 276 280 285 291 294
167 166 166 165 164 164 162 160 161 161 163 167 169 173 173 173 176 177 185 188 180 178 174 169 197 206 210 202 214 235 234 241 251 258 264 268 270 271 274 278 281 285 288 292
163 163 163 161 161 160 159 160 162 161 162 168 173 173 172 175 178 181 192 197 173 161 187 190 200 193 198 217 224 234 239 244 251 255 262 270 273 274 278 283 286 288 291 295
158 158 159 160 160 157 157 162 163 163 165 170 174 177 180 182 181 182 180 174 172 168 201 197 166 155 191 228 235 238 245 253 258 261 264 269 274 276 280 286 291 296 299 301
153 155 156 156 156 157 160 162 161 164 168 172 173 174 177 178 180 185 170 151 159 171 204 156 154 178 215 232 237 243 247 252 259 266 275 282 285 284 286 289 293 299 304 305
153 153 154 158 161 161 158 159 160 166 170 168 167 171 179 181 177 168 163 163 162 186 197 169 181 201 225 236 241 249 257 271 286 293 292 291 292 295 297 298 301 303 304 305
154 158 159 166 161 158 160 165 168 168 169 166 166 167 168 170 174 169 172 175 175 199 216 187 186 205 227 235 241 253 264 259 254 261 277 285 293 301 307 309 307 309 311 312
158 155 158 162 162 166 165 168 166 168 171 168 164 165 168 171 175 176 178 179 177 191 209 212 206 209 220 229 236 240 248 258 270 278 287 296 304 307 310 308 310 315 315 317